Location: Boiro
(42.6475°N, 8.8834°W)
Time: 03:31:19
(UTC+01:00)

Vanguard 3 - Pass Details

Date: 09 December 2021
Orbit: 508 x 3260 km, 33.3° (Epoch: 19 January)

Event Time Altitude Azimuth Distance (km) Brightness Sun altitude
Exits shadow 07:50:27 - 270° (W) 6,390 11.1 -11.3°
Reaches altitude 10° 07:51:24 10° 269° (W) 6,201 11.0 -11.2°
Maximum altitude 08:10:07 54° 200° (SSW) 3,269 10.2 -8.0°
Drops below altitude 10° 08:23:28 10° 128° (SE) 4,557 12.6 -5.8°
Sets 08:26:30 0° 124° (ESE) 5,238 13.8 -5.3°
